Location: Marne
(34.0056°N, 117.9064°W)
Time: 19:56:24
(UTC+00:00)

Meteor 2-10 Rocket - Pass Details

Date: 18 January 2020
Orbit: 733 x 885 km, 81.2° (Epoch: 20 February)

Event Time Altitude Azimuth Distance (km) Brightness Sun altitude
Rises 03:24:37 0° 349° (NNW) 3,336 6.9 -28.1°
Reaches altitude 10° 03:27:04 10° 347° (NNW) 2,377 6.1 -28.6°
Enters shadow 03:30:26 39° 337° (NNW) 1,165 4.5 -29.3°
Exits shadow 03:38:31 - 180° (S) 2,689 6.4 -31.0°
Sets 03:39:45 0° 179° (S) 3,177 6.8 -31.3°
